User: anonymous   Login
Location: CNYAC Observatory
(43.2150°N, 74.9500°W)
Time: 10:10:51
(UTC-04:00)
Language:

Cosmos 1975 Rocket - Orbit

View from above orbital plane
View from above orbital plane
View from above satellite
View from above satellite

Ground track
Ground track

The orbit data is extracted from the following two-line orbital elements,

1 19574U 88093B   19114.43090969  .00000079  00000-0  67102-5 0  9997
2 19574  82.5337 232.7780 0022752  49.8309  16.1303 14.83295168649691
Epoch (UTC): 24 April 2019 10:20:30
Eccentricity: 0.0022752
inclination: 82.5337°
perigee height: 603 km
apogee height: 635 km
right ascension of ascending node: 232.7780°
argument of perigee: 49.8309°
revolutions per day: 14.83295168
mean anomaly at epoch: 16.1303°
orbit number at epoch: 64969

The dashed part of the orbit path shows where the satellite is in the earth's shadow,  

DLR